• In Hungary
  • List of Countries
  • For 7 days
  • Water Temperature
  • Satellite Maps
  • Weather Map
  • News
  • Weather Widgets
  • user-avatar
    Login

    Hourly Weather Laziska

    Today, 25 February, Sunday

    Time Temperature Precipitation Wind Pressure Humidity
    00:00 -10°C° 0 mm 3 mps 751 mmHg 66%
    01:00 -13°C° 0 mm 3 mps 751 mmHg 76%
    02:00 -13°C° 0 mm 3 mps 751 mmHg 77%
    03:00 -13°C° 0 mm 3 mps 751 mmHg 78%
    04:00 -13°C° 0 mm 3 mps 751 mmHg 79%
    05:00 -14°C° 0 mm 3 mps 751 mmHg 79%
    06:00 -14°C° 0 mm 3 mps 751 mmHg 80%
    07:00 -14°C° 0 mm 3 mps 751 mmHg 80%
    08:00 -13°C° 0 mm 3 mps 751 mmHg 77%
    09:00 -13°C° 0 mm 3 mps 751 mmHg 73%
    10:00 -12°C° 0 mm 4 mps 751 mmHg 70%
    11:00 -11°C° 0 mm 4 mps 751 mmHg 67%
    12:00 -11°C° 0 mm 4 mps 751 mmHg 65%
    13:00 -10°C° 0 mm 4 mps 750 mmHg 63%
    14:00 -10°C° 0 mm 4 mps 750 mmHg 63%
    15:00 -10°C° 0 mm 4 mps 750 mmHg 64%
    16:00 -10°C° 0 mm 4 mps 750 mmHg 64%
    17:00 -11°C° 0 mm 4 mps 750 mmHg 67%
    18:00 -10°C° 0 mm 3 mps 750 mmHg 70%
    19:00 -12°C° 0 mm 3 mps 750 mmHg 73%
    20:00 -12°C° 0 mm 3 mps 750 mmHg 75%
    21:00 -12°C° 0 mm 3 mps 750 mmHg 77%
    22:00 -12°C° 0 mm 3 mps 750 mmHg 78%
    23:00 -12°C° 0 mm 3 mps 750 mmHg 79%

    Tomorrow, 26 February, Monday

    Time Temperature Precipitation Wind Pressure Humidity
    00:00 -12°C° 0 mm 3 mps 750 mmHg 80%
    01:00 -13°C° 0 mm 3 mps 749 mmHg 81%
    02:00 -13°C° 0 mm 3 mps 749 mmHg 81%
    03:00 -13°C° 0 mm 3 mps 749 mmHg 81%
    04:00 -13°C° 0 mm 3 mps 749 mmHg 82%
    05:00 -13°C° 0 mm 3 mps 749 mmHg 82%
    06:00 -14°C° 0 mm 4 mps 749 mmHg 81%
    07:00 -14°C° 0 mm 4 mps 749 mmHg 81%
    08:00 -14°C° 0 mm 4 mps 749 mmHg 77%
    09:00 -12°C° 0 mm 4 mps 748 mmHg 73%
    10:00 -12°C° 0 mm 5 mps 748 mmHg 69%
    11:00 -12°C° 0 mm 5 mps 748 mmHg 67%
    12:00 -11°C° 0 mm 5 mps 748 mmHg 65%
    13:00 -11°C° 0 mm 5 mps 747 mmHg 63%
    14:00 -11°C° 0 mm 5 mps 747 mmHg 64%
    15:00 -11°C° 0 mm 5 mps 747 mmHg 65%
    16:00 -11°C° 0 mm 5 mps 746 mmHg 65%
    17:00 -12°C° 0 mm 5 mps 746 mmHg 68%
    18:00 -12°C° 0 mm 5 mps 746 mmHg 70%
    19:00 -12°C° 0 mm 4 mps 747 mmHg 72%
    20:00 -12°C° 0 mm 4 mps 746 mmHg 73%
    21:00 -12°C° 0 mm 4 mps 746 mmHg 75%
    22:00 -12°C° 0 mm 4 mps 746 mmHg 76%
    23:00 -14°C° 0 mm 4 mps 746 mmHg 76%

    Day after tomorrow, 27 February, Tuesday

    Time Temperature Precipitation Wind Pressure Humidity
    00:00 -14°C° 0 mm 5 mps 746 mmHg 76%
    01:00 -14°C° 0 mm 5 mps 745 mmHg 77%
    02:00 -14°C° 0 mm 5 mps 745 mmHg 77%
    03:00 -15°C° 0 mm 5 mps 745 mmHg 77%
    04:00 -15°C° 0 mm 5 mps 745 mmHg 77%
    05:00 -15°C° 0 mm 5 mps 745 mmHg 77%
    06:00 -15°C° 0 mm 5 mps 745 mmHg 77%
    07:00 -15°C° 0 mm 5 mps 744 mmHg 77%
    08:00 -15°C° 0 mm 5 mps 744 mmHg 75%
    09:00 -14°C° 0 mm 5 mps 744 mmHg 72%
    10:00 -14°C° 0 mm 5 mps 744 mmHg 70%
    11:00 -14°C° 0 mm 6 mps 744 mmHg 68%
    12:00 -14°C° 0 mm 6 mps 744 mmHg 67%
    13:00 -12°C° 0 mm 6 mps 744 mmHg 66%
    14:00 -12°C° 0 mm 6 mps 744 mmHg 67%
    15:00 -12°C° 0 mm 6 mps 744 mmHg 69%
    16:00 -12°C° 0 mm 6 mps 744 mmHg 71%
    17:00 -12°C° 0.1 mm 6 mps 744 mmHg 73%
    18:00 -14°C° 0.1 mm 6 mps 745 mmHg 75%
    19:00 -14°C° 0.1 mm 6 mps 745 mmHg 77%
    20:00 -13°C° 0.1 mm 5 mps 745 mmHg 78%
    21:00 -13°C° 0.1 mm 5 mps 745 mmHg 78%
    22:00 -14°C° 0.1 mm 5 mps 746 mmHg 79%
    23:00 -14°C° 0 mm 5 mps 746 mmHg 79%

    28 February, Wednesday

    Time Temperature Precipitation Wind Pressure Humidity
    00:00 -14°C° 0 mm 5 mps 746 mmHg 79%
    01:00 -14°C° 0 mm 5 mps 746 mmHg 80%
    02:00 -14°C° 0 mm 5 mps 746 mmHg 80%
    03:00 -14°C° 0 mm 5 mps 746 mmHg 80%
    04:00 -15°C° 0 mm 5 mps 746 mmHg 80%
    05:00 -15°C° 0 mm 5 mps 746 mmHg 81%
    06:00 -15°C° 0 mm 5 mps 747 mmHg 81%
    07:00 -15°C° 0 mm 5 mps 747 mmHg 81%
    08:00 -14°C° 0 mm 5 mps 747 mmHg 78%
    09:00 -14°C° 0 mm 5 mps 747 mmHg 75%
    10:00 -13°C° 0 mm 5 mps 748 mmHg 71%
    11:00 -13°C° 0 mm 5 mps 748 mmHg 70%
    12:00 -12°C° 0 mm 5 mps 747 mmHg 68%
    13:00 -12°C° 0 mm 5 mps 747 mmHg 66%
    14:00 -12°C° 0 mm 5 mps 747 mmHg 67%
    15:00 -11°C° 0 mm 4 mps 747 mmHg 67%
    16:00 -11°C° 0 mm 4 mps 747 mmHg 68%
    17:00 -12°C° 0 mm 4 mps 747 mmHg 71%
    18:00 -12°C° 0 mm 3 mps 748 mmHg 75%
    19:00 -13°C° 0 mm 3 mps 748 mmHg 78%
    20:00 -13°C° 0 mm 3 mps 748 mmHg 79%
    21:00 -13°C° 0 mm 3 mps 748 mmHg 81%
    22:00 -14°C° 0 mm 3 mps 749 mmHg 82%
    23:00 -14°C° 0 mm 3 mps 749 mmHg 83%

    1 March, Thursday

    Time Temperature Precipitation Wind Pressure Humidity
    00:00 -14°C° 0 mm 3 mps 748 mmHg 84%
    01:00 -15°C° 0 mm 3 mps 748 mmHg 85%
    02:00 -15°C° 0 mm 3 mps 748 mmHg 85%
    03:00 -14°C° 0 mm 2 mps 748 mmHg 86%
    04:00 -14°C° 0 mm 2 mps 748 mmHg 86%
    05:00 -14°C° 0 mm 2 mps 748 mmHg 86%
    06:00 -15°C° 0 mm 2 mps 748 mmHg 85%
    07:00 -16°C° 0 mm 3 mps 748 mmHg 85%
    08:00 -14°C° 0 mm 3 mps 748 mmHg 79%
    09:00 -13°C° 0 mm 3 mps 747 mmHg 74%
    10:00 -10°C° 0 mm 3 mps 747 mmHg 68%
    11:00 -9°C° 0 mm 3 mps 747 mmHg 66%
    12:00 -8°C° 0 mm 3 mps 746 mmHg 64%
    13:00 -7°C° 0 mm 3 mps 746 mmHg 61%
    14:00 -7°C° 0 mm 3 mps 746 mmHg 63%
    15:00 -7°C° 0 mm 3 mps 745 mmHg 65%
    16:00 -7°C° 0 mm 3 mps 745 mmHg 67%
    17:00 -8°C° 0 mm 3 mps 745 mmHg 72%
    18:00 -9°C° 0 mm 3 mps 745 mmHg 78%
    19:00 -10°C° 0 mm 3 mps 745 mmHg 84%
    20:00 -12°C° 0 mm 3 mps 745 mmHg 85%
    21:00 -10°C° 0 mm 2 mps 745 mmHg 86%
    22:00 -10°C° 0 mm 2 mps 745 mmHg 87%
    23:00 -12°C° 0 mm 2 mps 744 mmHg 87%

    2 March, Friday

    Time Temperature Precipitation Wind Pressure Humidity
    00:00 -12°C° 0 mm 2 mps 744 mmHg 87%
    01:00 -12°C° 0 mm 2 mps 743 mmHg 88%
    02:00 -12°C° 0 mm 2 mps 743 mmHg 87%
    03:00 -12°C° 0 mm 2 mps 742 mmHg 87%
    04:00 -12°C° 0 mm 2 mps 742 mmHg 87%
    05:00 -12°C° 0 mm 2 mps 741 mmHg 86%
    06:00 -12°C° 0 mm 2 mps 741 mmHg 84%
    07:00 -12°C° 0 mm 2 mps 741 mmHg 82%
    08:00 -9°C° 0 mm 2 mps 740 mmHg 77%
    09:00 -8°C° 0 mm 2 mps 740 mmHg 71%
    10:00 -7°C° 0 mm 2 mps 740 mmHg 66%
    11:00 -5°C° 0 mm 2 mps 739 mmHg 64%
    12:00 -4°C° 0 mm 2 mps 739 mmHg 63%
    13:00 -3°C° 0 mm 2 mps 738 mmHg 61%
    14:00 -3°C° 0 mm 2 mps 738 mmHg 65%
    15:00 -3°C° 0 mm 2 mps 738 mmHg 68%
    16:00 -3°C° 0 mm 2 mps 737 mmHg 71%
    17:00 -3°C° 0 mm 2 mps 737 mmHg 75%
    18:00 -2°C° 0 mm 1 mps 737 mmHg 79%
    19:00 -2°C° 0 mm 1 mps 737 mmHg 83%
    20:00 -2°C° 0 mm 1 mps 737 mmHg 84%
    21:00 -2°C° 0 mm 1 mps 737 mmHg 86%
    22:00 -2°C° 0 mm 1 mps 737 mmHg 87%
    23:00 -2°C° 0 mm 1 mps 737 mmHg 88%
    Show more